Location: Fernhill
(41.0167°S, 175.6333°E)
Time: 22:40:37
(UTC+00:00)

Cosmos 2369 Rocket - Pass Details

Date: 08 November 2025
Orbit: 826 x 852 km, 71.0° (Epoch: 04 December)

Event Time Altitude Azimuth Distance (km) Brightness Sun altitude
Rises 08:04:21 0° 211° (SSW) 3,418 6.7 -10.5°
Reaches altitude 10° 08:06:57 10° 218° (SW) 2,473 6.0 -10.9°
Maximum altitude 08:12:11 39° 285° (WNW) 1,232 3.4 -11.7°
Drops below altitude 10° 08:17:19 10° 353° (N) 2,433 4.3 -12.5°
Sets 08:19:52 0° 360° (N) 3,356 5.0 -12.9°
Enters shadow 08:19:53 - 360° (N) 3,362 5.0 -12.9°
